Wind_Speed
3 3 3 4 4 5 4 4 4 4 4 3 3 3 3 2 1 1 2 2 3 3 4 5 6 6 7 7 7 7 7 7 8 8 8 8 7 7 6 7 7 7 8
2 2 2 3 3 3 3 3 4 4 3 3 3 2 2 2 1 1 1 2 3 4 4 5 6 7 7 8 7 7 8 8 8 8 8 8 8 8 7 7 8 7 8
1 2 2 2 2 2 2 3 3 3 3 3 3 3 2 1 0 0 1 2 3 4 4 5 6 7 7 8 8 8 8 8 9 9 9 9 9 9 8 8 8 8 8
1 1 1 1 2 2 2 2 2 3 2 2 2 2 2 1 1 1 1 2 3 4 4 5 6 7 7 8 8 8 8 9 9 10 10 10 9 9 9 8 9 9 9
0 0 1 1 2 2 2 2 2 3 2 2 2 3 2 2 1 2 2 2 3 3 4 4 5 6 7 8 8 9 9 9 9 9 10 10 10 10 9 9 9 10 10
0 0 1 1 2 2 2 2 2 3 3 2 2 3 2 2 2 2 2 3 3 3 4 4 5 6 7 8 8 9 10 10 10 10 10 10 11 11 10 10 10 10 11
1 1 0 1 2 2 2 2 2 3 3 2 2 3 3 3 2 2 2 2 3 3 4 4 5 6 7 8 9 9 10 11 11 11 10 10 11 12 11 11 11 10 11
2 1 1 1 2 2 2 2 2 2 3 3 3 3 3 3 2 2 2 2 2 3 4 4 5 5 7 8 9 10 10 11 11 10 10 10 10 11 11 11 11 11 11
2 2 2 1 1 2 2 2 2 2 3 3 4 4 3 3 2 2 2 2 2 2 3 4 5 6 6 7 8 9 10 11 11 11 10 10 10 11 11 11 11 11 11
2 2 2 1 2 2 2 2 2 2 3 3 4 4 4 3 2 2 2 2 2 2 3 4 5 6 7 7 8 9 10 10 11 12 11 11 11 11 11 11 11 12 11
3 2 2 2 2 2 2 2 2 2 3 3 4 4 4 3 3 3 2 2 2 3 3 4 4 5 7 8 8 9 9 10 11 11 11 11 11 11 10 11 11 12 12
4 3 3 2 2 2 2 2 2 2 3 3 4 4 4 4 4 4 3 3 2 2 3 3 4 5 7 8 8 9 9 10 11 10 11 11 11 11 11 11 11 12 12
4 4 4 3 3 2 1 1 2 2 3 3 4 4 4 4 4 3 3 3 3 2 2 2 3 5 6 7 8 9 10 10 10 10 10 11 11 11 11 11 11 12 13
4 5 4 4 4 3 1 1 2 2 3 4 4 4 4 5 4 3 3 3 2 2 2 2 2 4 6 7 8 9 10 11 11 11 10 11 11 11 11 11 11 12 12
5 5 5 5 4 3 2 1 2 2 3 4 4 4 5 5 4 3 3 2 1 0 1 1 2 3 5 6 8 9 9 10 10 10 10 9 10 10 10 10 10 12 12
6 6 6 5 4 3 3 2 2 2 3 3 3 4 4 4 4 3 2 1 1 1 0 0 1 2 4 6 7 8 8 8 9 9 9 9 9 9 9 10 10 10 11
6 6 6 6 5 4 4 3 2 2 2 2 3 3 4 4 4 3 2 2 1 1 1 1 0 1 3 5 6 7 8 7 7 8 8 8 9 9 9 9 9 9 11
6 6 6 6 5 4 4 3 2 2 2 2 2 3 4 4 3 3 3 2 2 2 2 1 1 0 2 4 5 6 7 7 7 7 8 8 8 8 8 8 8 9 9
6 6 5 5 5 4 4 3 3 2 2 2 2 3 3 3 3 3 3 3 3 3 2 2 2 1 2 3 4 5 6 6 6 7 7 7 8 8 8 8 8 7 8
7 7 6 6 5 5 4 4 3 2 2 2 2 2 2 3 3 3 3 2 2 2 3 2 2 2 2 2 3 4 5 6 6 6 6 6 7 7 7 8 8 7 7
8 8 7 7 6 5 4 4 3 2 2 2 1 1 2 2 2 3 3 3 3 3 3 2 2 2 1 1 2 3 4 4 5 5 6 6 6 7 7 7 8 8 8
8 8 8 7 6 5 5 4 4 3 2 2 1 1 2 2 2 3 2 2 3 3 3 3 3 2 1 0 1 2 3 4 5 5 5 5 6 7 7 8 8 8 8
9 9 8 8 7 6 5 4 4 3 2 2 1 1 1 2 2 3 2 2 2 3 2 3 3 2 2 1 0 1 2 3 4 5 6 6 6 7 8 8 8 9 9
9 8 8 8 7 6 6 4 4 3 2 2 1 0 1 2 2 3 3 2 2 2 2 2 2 1 1 1 1 1 1 2 4 5 6 6 7 7 8 8 8 8 9
9 8 8 8 7 6 6 5 4 3 2 2 2 1 0 1 2 3 3 3 3 2 2 2 1 1 1 1 1 1 2 2 3 4 5 6 7 8 8 8 8 8 8
9 9 9 9 7 6 6 5 5 4 4 4 3 2 1 0 2 2 2 3 3 3 2 2 2 1 1 2 2 1 2 3 3 4 4 5 6 7 7 8 8 8 9
Wind_Direction
88 81 79 75 70 72 70 65 49 45 50 44 43 54 57 67 90 158 174 193 195 200 201 201 201 203 202 200 201 204 203 199 198 195 195 195 195 190 189 192 189 182 181
99 82 87 80 64 62 59 54 43 34 37 37 37 38 44 56 73 154 180 191 207 213 209 209 208 208 206 204 202 203 202 201 203 200 200 201 198 192 195 199 197 191 187
100 79 83 81 59 43 38 30 24 25 25 26 24 21 23 32 23 235 198 208 222 224 217 214 209 210 210 207 206 206 205 201 202 200 199 202 201 200 202 204 204 200 193
79 66 85 66 37 25 21 12 9 11 14 17 15 12 7 355 325 271 256 238 234 233 229 218 212 213 214 213 212 210 211 208 206 202 201 205 206 205 206 209 209 205 201
93 60 29 37 7 8 6 356 6 17 20 21 19 14 2 348 320 282 266 250 238 234 231 219 216 217 219 219 216 211 210 209 209 207 205 207 209 207 208 212 211 208 208
193 72 20 18 358 350 353 360 8 15 13 18 22 12 1 347 326 291 267 252 240 237 234 229 224 223 223 221 219 216 213 212 213 210 209 209 210 210 209 211 213 213 211
233 227 297 348 348 341 348 354 1 2 6 12 12 3 351 341 328 305 273 250 240 240 239 237 228 226 224 222 222 218 213 214 213 212 211 214 216 215 212 212 216 213 210
260 232 279 313 331 340 342 350 353 359 3 3 359 352 346 338 324 303 271 250 252 247 242 236 227 227 227 225 221 220 213 213 213 213 214 217 217 214 213 213 215 211 213
253 256 282 297 314 340 344 348 350 2 355 353 355 350 344 340 329 308 282 266 264 256 248 240 232 228 226 223 218 214 213 213 214 216 215 216 217 215 214 216 218 215 217
245 261 266 277 298 314 328 340 346 355 356 355 355 351 346 340 331 316 301 285 272 260 253 246 238 232 227 222 218 214 214 215 215 217 216 216 217 215 216 220 218 217 218
244 265 267 267 284 294 301 321 333 335 340 347 349 351 351 349 340 330 311 293 285 270 259 252 243 231 225 222 218 215 214 215 216 218 219 218 217 218 221 221 220 219 219
250 254 250 243 268 272 297 321 334 336 337 341 343 347 350 344 336 329 314 300 290 273 261 248 237 225 220 218 218 217 215 214 216 220 219 219 218 220 221 223 224 222 220
244 243 234 238 245 251 301 340 339 328 328 335 340 342 343 339 331 325 313 304 293 280 263 249 231 220 216 214 216 215 215 213 214 216 215 217 217 218 223 225 225 224 222
246 247 239 234 233 233 254 326 330 320 321 331 337 340 341 341 337 327 313 308 299 280 262 249 228 217 213 212 213 211 213 214 215 217 215 218 218 216 223 226 226 224 223
248 245 235 231 225 219 218 265 305 309 317 335 341 341 342 346 347 337 322 335 349 314 263 236 228 215 211 211 211 208 212 213 217 219 214 214 218 221 223 227 229 228 229
247 244 235 229 225 221 222 258 293 302 313 337 344 349 347 350 355 358 360 4 33 28 60 259 230 213 213 209 207 208 213 213 214 212 215 220 223 224 226 226 228 230 232
242 241 234 232 225 223 230 247 278 306 309 326 345 358 357 357 2 9 21 36 54 61 62 350 296 221 210 203 202 208 209 211 206 213 219 223 226 226 225 228 233 233 234
235 232 230 227 225 227 239 248 266 288 296 320 336 351 356 359 7 19 33 51 59 59 54 52 44 180 201 190 191 198 204 207 208 211 215 220 224 224 225 229 236 236 235
233 234 231 227 225 223 232 236 248 276 283 307 337 351 353 358 10 21 35 54 56 58 53 47 63 89 150 167 180 191 200 204 207 211 215 217 222 227 229 230 234 236 240
236 239 236 230 221 219 224 221 226 257 271 290 329 351 359 7 14 22 28 40 37 36 32 36 65 89 126 158 177 189 200 210 216 217 219 222 223 227 234 234 235 241 243
237 239 234 227 222 220 216 216 222 240 269 278 296 358 0 5 18 24 22 20 18 25 28 40 63 82 114 156 185 198 206 216 221 224 224 228 225 226 232 237 242 244 247
233 232 227 225 221 214 214 223 232 240 255 271 284 25 17 5 12 22 14 10 21 25 32 48 62 66 74 87 210 215 219 225 221 222 228 233 230 231 234 239 243 247 250
231 227 223 221 221 217 214 224 239 248 245 245 261 85 41 12 14 20 19 18 27 30 41 56 62 63 50 33 327 240 232 231 234 235 236 236 237 240 242 245 252 255 255
224 219 222 223 221 220 212 215 232 243 242 224 206 154 67 32 27 31 42 41 31 36 53 48 53 51 36 24 357 279 254 246 241 240 242 241 241 244 246 248 253 257 259
223 222 222 221 219 218 216 216 227 234 230 214 210 214 106 57 40 35 43 47 43 45 44 38 48 46 37 10 348 303 267 263 265 255 251 247 248 249 249 250 255 260 265
229 227 228 223 220 221 221 218 228 231 224 216 214 211 208 92 43 38 43 48 49 47 44 42 39 38 25 355 334 307 272 269 268 263 257 253 252 253 253 254 255 261 267
Height
5894 5893 5893 5892 5891 5891 5891 5890 5890 5889 5888 5887 5887 5886 5886 5885 5885 5885 5885 5884 5885 5885 5885 5885 5885 5886 5886 5887 5888 5888 5889 5890 5891 5891 5892 5893 5894 5894 5895 5895 5896 5897 5897
5894 5893 5892 5892 5891 5891 5891 5890 5889 5889 5888 5887 5886 5886 5886 5885 5885 5884 5884 5884 5884 5884 5884 5884 5885 5885 5886 5886 5887 5888 5889 5889 5890 5891 5891 5892 5893 5894 5895 5895 5896 5897 5897
5894 5893 5892 5892 5892 5891 5890 5890 5889 5888 5888 5887 5886 5885 5885 5885 5884 5884 5884 5883 5883 5883 5883 5883 5884 5884 5885 5885 5886 5887 5888 5889 5889 5890 5891 5892 5892 5893 5894 5895 5895 5896 5897
5894 5893 5893 5892 5891 5891 5890 5890 5889 5888 5887 5886 5886 5885 5884 5884 5884 5883 5883 5883 5882 5882 5882 5883 5883 5883 5884 5884 5885 5886 5887 5888 5888 5889 5890 5891 5892 5893 5894 5894 5895 5896 5897
5893 5893 5892 5892 5891 5891 5890 5889 5889 5888 5887 5886 5885 5885 5884 5883 5883 5882 5882 5882 5882 5881 5882 5882 5882 5882 5883 5884 5884 5885 5886 5887 5887 5888 5889 5890 5891 5892 5893 5894 5894 5895 5896
5893 5893 5892 5892 5891 5891 5890 5889 5889 5888 5887 5886 5885 5884 5883 5883 5882 5882 5881 5881 5881 5881 5881 5881 5881 5881 5882 5882 5883 5884 5885 5886 5886 5887 5888 5889 5890 5891 5892 5893 5894 5894 5895
5893 5892 5892 5891 5891 5891 5890 5889 5888 5888 5887 5886 5885 5884 5883 5882 5881 5881 5880 5880 5880 5880 5879 5879 5880 5880 5880 5881 5882 5882 5883 5884 5885 5886 5887 5888 5889 5890 5891 5892 5893 5894 5894
5892 5892 5891 5891 5891 5890 5890 5889 5888 5887 5887 5886 5885 5884 5883 5882 5881 5880 5879 5879 5879 5878 5878 5878 5878 5879 5879 5880 5880 5881 5882 5883 5884 5885 5886 5887 5888 5889 5890 5891 5892 5893 5894
5892 5892 5891 5891 5890 5890 5889 5888 5888 5887 5886 5886 5885 5883 5882 5881 5880 5879 5879 5878 5878 5877 5877 5877 5877 5877 5878 5878 5879 5880 5881 5882 5883 5884 5885 5886 5887 5888 5889 5890 5891 5892 5893
5892 5891 5891 5891 5890 5890 5889 5888 5888 5887 5886 5885 5884 5883 5882 5881 5880 5879 5878 5878 5877 5876 5876 5876 5876 5876 5877 5877 5878 5879 5880 5881 5882 5883 5884 5885 5886 5887 5888 5889 5889 5890 5891
5891 5891 5891 5890 5890 5889 5889 5888 5887 5887 5886 5885 5884 5883 5882 5881 5880 5878 5878 5877 5876 5876 5875 5875 5875 5875 5875 5876 5877 5877 5878 5880 5881 5882 5883 5884 5885 5886 5887 5887 5888 5889 5890
5890 5890 5890 5890 5890 5889 5889 5888 5887 5886 5886 5885 5884 5883 5881 5880 5879 5878 5877 5876 5875 5875 5874 5874 5874 5874 5874 5875 5875 5876 5877 5878 5879 5880 5881 5882 5884 5884 5885 5886 5887 5888 5888
5890 5890 5890 5889 5889 5889 5888 5888 5887 5886 5885 5884 5883 5882 5881 5880 5878 5877 5876 5875 5874 5874 5873 5873 5873 5873 5873 5873 5874 5875 5876 5877 5878 5879 5880 5881 5882 5883 5884 5885 5886 5886 5887
5889 5889 5889 5889 5888 5888 5888 5888 5887 5886 5885 5884 5883 5882 5881 5879 5878 5877 5875 5874 5874 5873 5872 5872 5872 5872 5872 5872 5873 5874 5874 5875 5876 5878 5878 5879 5881 5881 5882 5883 5884 5885 5886
5888 5888 5888 5888 5888 5888 5887 5887 5887 5886 5885 5884 5883 5881 5880 5879 5878 5876 5875 5874 5873 5872 5872 5871 5871 5871 5871 5871 5872 5873 5873 5874 5875 5876 5877 5878 5879 5880 5881 5882 5882 5883 5884
5887 5887 5887 5887 5887 5887 5887 5887 5887 5886 5885 5884 5883 5881 5880 5879 5877 5876 5875 5874 5873 5872 5872 5871 5870 5870 5870 5871 5871 5872 5873 5873 5874 5875 5876 5877 5878 5879 5880 5880 5881 5882 5882
5886 5886 5886 5886 5887 5887 5887 5887 5886 5886 5885 5884 5883 5881 5880 5879 5877 5876 5875 5874 5873 5872 5872 5871 5870 5870 5870 5870 5870 5871 5872 5873 5874 5875 5876 5877 5877 5878 5878 5879 5880 5880 5881
5885 5885 5885 5885 5886 5886 5886 5886 5886 5885 5885 5884 5882 5881 5880 5879 5878 5877 5875 5875 5874 5873 5872 5871 5870 5870 5869 5870 5870 5871 5871 5872 5873 5874 5875 5876 5876 5877 5878 5878 5879 5879 5879
5883 5884 5884 5885 5885 5885 5885 5885 5885 5885 5884 5883 5882 5881 5880 5879 5878 5877 5876 5875 5874 5873 5873 5872 5871 5870 5870 5870 5870 5871 5871 5872 5873 5873 5874 5875 5875 5876 5877 5877 5878 5878 5878
5882 5883 5884 5884 5884 5884 5884 5885 5885 5884 5884 5883 5882 5881 5880 5879 5878 5877 5876 5875 5875 5874 5873 5872 5872 5871 5871 5871 5871 5871 5872 5872 5872 5873 5874 5874 5875 5875 5876 5876 5877 5877 5877
5881 5882 5882 5883 5883 5883 5884 5884 5884 5884 5883 5883 5882 5881 5880 5879 5879 5878 5877 5876 5875 5874 5874 5873 5872 5872 5872 5871 5872 5872 5872 5872 5872 5873 5873 5873 5874 5874 5875 5875 5875 5876 5876
5880 5880 5881 5882 5882 5883 5883 5883 5883 5883 5883 5882 5882 5881 5880 5880 5879 5878 5877 5876 5876 5875 5874 5874 5873 5873 5872 5872 5872 5872 5872 5873 5872 5872 5873 5873 5873 5873 5874 5874 5874 5874 5874
5878 5879 5880 5880 5881 5882 5882 5882 5883 5883 5882 5882 5882 5881 5881 5880 5879 5878 5877 5877 5876 5875 5875 5874 5874 5873 5873 5872 5872 5872 5872 5872 5872 5872 5872 5872 5873 5873 5873 5873 5873 5873 5873
5877 5878 5878 5879 5880 5881 5881 5882 5882 5882 5882 5882 5882 5881 5881 5880 5879 5878 5878 5877 5876 5876 5875 5875 5874 5874 5873 5873 5872 5872 5872 5871 5871 5871 5871 5871 5871 5872 5872 5872 5872 5872 5871
5875 5876 5877 5878 5879 5880 5880 5881 5881 5882 5882 5882 5882 5881 5881 5880 5880 5879 5878 5877 5877 5876 5876 5875 5874 5874 5873 5873 5872 5872 5871 5871 5870 5870 5870 5870 5870 5870 5870 5870 5870 5870 5870
5874 5875 5876 5877 5877 5878 5879 5880 5880 5881 5881 5881 5881 5881 5881 5880 5880 5879 5878 5878 5877 5877 5876 5876 5875 5874 5873 5873 5872 5871 5871 5870 5870 5870 5869 5869 5869 5869 5869 5869 5869 5868 5868